User: anonymous   Login
Location: Unspecified
(0.0000°N, 0.0000°E)
Time: 20:42:03
(UTC+00:00)
Language:

Skynet 4B - Orbit

View from above orbital plane
View from above orbital plane
View from above satellite
View from above satellite

Ground track
Ground track

The orbit data is extracted from the following two-line orbital elements,

1 19687U 88109A   17172.11561581 +.00000087 +00000-0 +00000-0 0  9998
2 19687 015.4115 005.3611 0004549 222.9447 137.0222 00.99673183085442
Epoch (UTC): 21 June 2017 02:46:29
Eccentricity: 0.0004549
inclination: 15.4115°
perigee height: 35935 km
apogee height: 35974 km
right ascension of ascending node: 5.3611°
argument of perigee: 222.9447°
revolutions per day: 0.99673183
mean anomaly at epoch: 137.0222°
orbit number at epoch: 8544

The dashed part of the orbit path shows where the satellite is in the earth's shadow,  

DLR